| time (UTC) | temp F | wind direction | speed MPH | gust MPH | rain 1hr in | rain 24hr in | rain mn in | humidity % | barometer mb |
| 20260503005501 | 75 | 67 | 0.0 | 2.0 | 0.00 | 0.39 | 0.01 | 92 | 1017.4 |
| 20260503005001 | 74 | 0 | 0.0 | 0.0 | 0.00 | 0.39 | 0.01 | 94 | 1017.7 |
| 20260503004500 | 75 | 0 | 0.0 | 0.0 | 0.00 | 0.39 | 0.01 | 91 | 1017.8 |
| 20260503004000 | 75 | 0 | 0.0 | 0.0 | 0.00 | 0.39 | 0.01 | 89 | 1017.7 |
| 20260503003502 | 75 | 0 | 0.0 | 0.0 | 0.00 | 0.39 | 0.01 | 89 | 1017.8 |
| 20260503003001 | 75 | 0 | 0.0 | 0.0 | 0.00 | 0.39 | 0.01 | 89 | 1017.8 |
| 20260503002500 | 76 | 112 | 0.0 | 2.0 | 0.00 | 0.39 | 0.01 | 89 | 1018.0 |
| 20260503002001 | 75 | 112 | 0.0 | 2.0 | 0.00 | 0.39 | 0.01 | 89 | 1017.9 |
| 20260503001501 | 75 | 0 | 0.0 | 0.0 | 0.00 | 0.39 | 0.01 | 91 | 1017.9 |
| 20260503001000 | 75 | 0 | 0.0 | 0.0 | 0.00 | 0.39 | 0.01 | 90 | 1017.9 |
| 20260503000501 | 76 | 0 | 0.0 | 0.0 | 0.00 | 0.39 | 0.01 | 90 | 1018.0 |
| 20260503000022 | 75 | 0 | 0.0 | 0.0 | 0.00 | 0.39 | 0.01 | 91 | 1017.8 |
| 20260502235501 | 75 | 0 | 0.0 | 0.0 | 0.00 | 0.39 | 0.01 | 91 | 1017.8 |
| 20260502235001 | 75 | 157 | 0.0 | 2.0 | 0.00 | 0.39 | 0.01 | 90 | 1018.1 |
| 20260502234501 | 75 | 157 | 0.0 | 2.0 | 0.00 | 0.39 | 0.01 | 90 | 1017.9 |
| 20260502234022 | 74 | 67 | 0.0 | 2.0 | 0.00 | 0.39 | 0.01 | 91 | 1017.9 |
| 20260502233501 | 74 | 101 | 0.0 | 2.0 | 0.00 | 0.39 | 0.01 | 91 | 1018.2 |
| 20260502233001 | 74 | 123 | 0.0 | 2.0 | 0.00 | 0.39 | 0.01 | 91 | 1018.3 |
| 20260502232501 | 74 | 124 | 0.0 | 2.0 | 0.00 | 0.39 | 0.01 | 92 | 1018.1 |
| 20260502232001 | 74 | 135 | 0.0 | 2.0 | 0.00 | 0.39 | 0.01 | 92 | 1018.1 |
| 20260502231501 | 74 | 0 | 0.0 | 0.0 | 0.00 | 0.39 | 0.01 | 92 | 1017.9 |
| 20260502231001 | 74 | 0 | 0.0 | 0.0 | 0.00 | 0.39 | 0.01 | 91 | 1018.0 |
| 20260502230501 | 74 | 0 | 0.0 | 0.0 | 0.00 | 0.39 | 0.01 | 92 | 1018.0 |
| 20260502230022 | 73 | 0 | 0.0 | 0.0 | 0.00 | 0.39 | 0.01 | 93 | 1017.7 |
| 20260502225522 | 73 | 0 | 0.0 | 0.0 | 0.00 | 0.39 | 0.01 | 93 | 1017.8 |
| 20260502225001 | 73 | 0 | 0.0 | 0.0 | 0.00 | 0.39 | 0.01 | 93 | 1017.7 |
| 20260502224501 | 73 | 0 | 0.0 | 0.0 | 0.00 | 0.39 | 0.01 | 92 | 1017.7 |
| 20260502224001 | 73 | 135 | 0.0 | 2.0 | 0.00 | 0.39 | 0.01 | 92 | 1017.7 |
| 20260502223502 | 73 | 135 | 0.0 | 2.0 | 0.00 | 0.39 | 0.01 | 93 | 1017.4 |
| 20260502223002 | 73 | 0 | 0.0 | 0.0 | 0.00 | 0.39 | 0.01 | 93 | 1017.5 |
| 20260502222501 | 73 | 0 | 0.0 | 0.0 | 0.00 | 0.39 | 0.01 | 94 | 1017.6 |
| 20260502222001 | 73 | 0 | 0.0 | 0.0 | 0.00 | 0.39 | 0.01 | 94 | 1017.5 |
| 20260502221501 | 72 | 0 | 0.0 | 0.0 | 0.00 | 0.39 | 0.01 | 93 | 1017.4 |
| 20260502221001 | 73 | 0 | 0.0 | 0.0 | 0.00 | 0.39 | 0.01 | 94 | 1017.4 |
| 20260502220501 | 72 | 0 | 0.0 | 0.0 | 0.00 | 0.39 | 0.01 | 94 | 1017.3 |
| 20260502220001 | 72 | 0 | 0.0 | 0.0 | 0.00 | 0.39 | 0.01 | 95 | 1017.3 |
| 20260502215501 | 72 | 0 | 0.0 | 0.0 | 0.00 | 0.39 | 0.01 | 97 | 1016.8 |
| 20260502215001 | 71 | 0 | 0.0 | 0.0 | 0.00 | 0.39 | 0.01 | 97 | 1017.2 |
| 20260502214501 | 71 | 0 | 0.0 | 0.0 | 0.00 | 0.39 | 0.01 | 98 | 1016.9 |
| 20260502214002 | 71 | 0 | 0.0 | 0.0 | 0.00 | 0.39 | 0.01 | 99 | 1017.0 |
| 20260502213502 | 71 | 0 | 0.0 | 0.0 | 0.00 | 0.39 | 0.01 | 99 | 1016.9 |
| 20260502213002 | 71 | 0 | 0.0 | 0.0 | 0.00 | 0.39 | 0.01 | 99 | 1016.8 |
| 20260502212522 | 71 | 0 | 0.0 | 0.0 | 0.00 | 0.39 | 0.01 | 98 | 1016.8 |
| 20260502212001 | 71 | 0 | 0.0 | 0.0 | 0.00 | 0.39 | 0.01 | 97 | 1016.8 |
| 20260502211501 | 71 | 0 | 0.0 | 0.0 | 0.00 | 0.39 | 0.01 | 96 | 1016.7 |
| 20260502211022 | 71 | 0 | 0.0 | 0.0 | 0.00 | 0.39 | 0.01 | 96 | 1016.7 |
| 20260502210522 | 71 | 0 | 0.0 | 0.0 | 0.00 | 0.39 | 0.01 | 96 | 1016.4 |
| 20260502210022 | 71 | 0 | 0.0 | 0.0 | 0.00 | 0.39 | 0.01 | 96 | 1016.5 |
| 20260502205501 | 71 | 0 | 0.0 | 0.0 | 0.00 | 0.39 | 0.01 | 95 | 1016.6 |
| 20260502162001 | 69 | 0 | 0.0 | 0.0 | 0.00 | 0.38 | 0.00 | 97 | 1016.3 |
| 20260502161523 | 69 | 0 | 0.0 | 0.0 | 0.00 | 0.38 | 0.00 | 97 | 1016.6 |
| 20260502161002 | 69 | 0 | 0.0 | 0.0 | 0.00 | 0.38 | 0.00 | 97 | 1016.5 |
| 20260502151002 | 69 | 0 | 0.0 | 0.0 | 0.00 | 0.38 | 0.00 | 97 | 1017.2 |
| 20260502150502 | 69 | 0 | 0.0 | 0.0 | 0.00 | 0.38 | 0.00 | 97 | 1017.2 |
| 20260502123503 | 67 | 0 | 0.0 | 0.0 | 0.00 | 0.38 | 0.38 | 96 | 1017.9 |
| 20260502123003 | 68 | 0 | 0.0 | 0.0 | 0.00 | 0.38 | 0.38 | 97 | 1018.0 |
| 20260502122502 | 68 | 0 | 0.0 | 0.0 | 0.00 | 0.38 | 0.38 | 97 | 1017.9 |
| 20260502122002 | 67 | 0 | 0.0 | 0.0 | 0.00 | 0.38 | 0.38 | 97 | 1017.9 |
| 20260502121502 | 67 | 0 | 0.0 | 0.0 | 0.00 | 0.38 | 0.38 | 97 | 1018.0 |
| 20260502121002 | 67 | 0 | 0.0 | 0.0 | 0.00 | 0.38 | 0.38 | 96 | 1017.9 |
| 20260502120502 | 67 | 0 | 0.0 | 0.0 | 0.00 | 0.38 | 0.38 | 96 | 1018.0 |
| 20260502115502 | 66 | 0 | 0.0 | 0.0 | 0.00 | 0.38 | 0.38 | 97 | 1018.3 |
| 20260502113503 | 67 | 0 | 0.0 | 0.0 | 0.05 | 0.38 | 0.38 | 95 | 1018.1 |
| 20260502113003 | 67 | 0 | 0.0 | 0.0 | 0.05 | 0.38 | 0.38 | 95 | 1018.0 |
| 20260502112502 | 67 | 0 | 0.0 | 0.0 | 0.05 | 0.38 | 0.38 | 94 | 1018.0 |
| 20260502112002 | 69 | 0 | 0.0 | 0.0 | 0.05 | 0.38 | 0.38 | 93 | 1018.0 |
| 20260502111502 | 67 | 0 | 0.0 | 0.0 | 0.06 | 0.38 | 0.38 | 94 | 1018.0 |
| 20260502111002 | 67 | 0 | 0.0 | 0.0 | 0.07 | 0.38 | 0.38 | 94 | 1018.2 |
| 20260502110502 | 67 | 0 | 0.0 | 0.0 | 0.07 | 0.38 | 0.38 | 94 | 1018.1 |
| 20260502110002 | 67 | 0 | 0.0 | 0.0 | 0.08 | 0.38 | 0.38 | 94 | 1018.0 |
| 20260502105002 | 68 | 0 | 0.0 | 0.0 | 0.08 | 0.38 | 0.38 | 91 | 1017.9 |
| 20260502104502 | 68 | 0 | 0.0 | 0.0 | 0.09 | 0.38 | 0.38 | 91 | 1017.8 |
| 20260502104003 | 69 | 0 | 0.0 | 0.0 | 0.11 | 0.38 | 0.38 | 91 | 1018.0 |
| 20260502103502 | 69 | 0 | 0.0 | 0.0 | 0.06 | 0.33 | 0.33 | 91 | 1018.1 |
| 20260502103024 | 69 | 0 | 0.0 | 0.0 | 0.06 | 0.33 | 0.33 | 91 | 1018.1 |
| 20260502102523 | 68 | 0 | 0.0 | 0.0 | 0.07 | 0.33 | 0.33 | 92 | 1017.9 |
| 20260502102002 | 68 | 0 | 0.0 | 0.0 | 0.11 | 0.33 | 0.33 | 92 | 1018.1 |
| 20260502101502 | 68 | 0 | 0.0 | 0.0 | 0.12 | 0.32 | 0.33 | 92 | 1018.0 |
| 20260502101002 | 68 | 0 | 0.0 | 0.0 | 0.11 | 0.31 | 0.31 | 91 | 1017.9 |
| 20260502100524 | 68 | 0 | 0.0 | 0.0 | 0.11 | 0.31 | 0.31 | 91 | 1017.9 |
| 20260502091502 | 70 | 0 | 0.0 | 0.0 | 0.15 | 0.20 | 0.20 | 87 | 1017.1 |
| 20260502091003 | 70 | 0 | 0.0 | 0.0 | 0.18 | 0.20 | 0.20 | 87 | 1017.2 |
| 20260502090523 | 71 | 0 | 0.0 | 0.0 | 0.19 | 0.20 | 0.20 | 86 | 1017.1 |
| 20260502071503 | 75 | 0 | 0.0 | 0.0 | 0.00 | 0.00 | 0.00 | 76 | 1016.4 |
| 20260502071024 | 75 | 0 | 0.0 | 0.0 | 0.00 | 0.00 | 0.00 | 75 | 1016.2 |
| 20260502070503 | 76 | 0 | 0.0 | 0.0 | 0.00 | 0.00 | 0.00 | 73 | 1016.2 |
| 20260502070003 | 77 | 0 | 0.0 | 0.0 | 0.00 | 0.00 | 0.00 | 73 | 1016.2 |
| 20260502065503 | 77 | 0 | 0.0 | 0.0 | 0.00 | 0.00 | 0.00 | 72 | 1016.1 |
| 20260502065003 | 77 | 0 | 0.0 | 0.0 | 0.00 | 0.00 | 0.00 | 72 | 1016.1 |
| 20260502064503 | 77 | 0 | 0.0 | 0.0 | 0.00 | 0.00 | 0.00 | 71 | 1015.9 |
| 20260502064003 | 77 | 0 | 0.0 | 0.0 | 0.00 | 0.00 | 0.00 | 70 | 1016.0 |
| 20260502063503 | 77 | 90 | 0.0 | 2.0 | 0.00 | 0.00 | 0.00 | 70 | 1015.9 |
| 20260502063024 | 77 | 90 | 0.0 | 2.0 | 0.00 | 0.00 | 0.00 | 69 | 1015.9 |
| 20260502062503 | 77 | 0 | 0.0 | 0.0 | 0.00 | 0.00 | 0.00 | 69 | 1015.8 |
| 20260502062003 | 78 | 0 | 0.0 | 0.0 | 0.00 | 0.00 | 0.00 | 69 | 1015.6 |
| 20260502061503 | 78 | 0 | 0.0 | 0.0 | 0.00 | 0.00 | 0.00 | 68 | 1015.8 |
| 20260502061003 | 78 | 0 | 0.0 | 0.0 | 0.00 | 0.00 | 0.00 | 67 | 1015.6 |
| 20260502060503 | 78 | 90 | 0.0 | 2.0 | 0.00 | 0.00 | 0.00 | 67 | 1015.8 |
| 20260502060003 | 78 | 90 | 0.0 | 2.0 | 0.00 | 0.00 | 0.00 | 66 | 1015.8 |
| 20260502055503 | 78 | 0 | 0.0 | 0.0 | 0.00 | 0.00 | 0.00 | 67 | 1015.6 |
| 20260502055003 | 78 | 0 | 0.0 | 0.0 | 0.00 | 0.00 | 0.00 | 66 | 1015.9 |
| 20260502054503 | 78 | 0 | 0.0 | 0.0 | 0.00 | 0.00 | 0.00 | 67 | 1015.6 |
| 20260502054003 | 79 | 0 | 0.0 | 0.0 | 0.00 | 0.00 | 0.00 | 65 | 1015.7 |
| 20260502053504 | 79 | 0 | 0.0 | 0.0 | 0.00 | 0.00 | 0.00 | 66 | 1015.7 |
| 20260502053004 | 79 | 0 | 0.0 | 0.0 | 0.00 | 0.00 | 0.00 | 65 | 1015.7 |
| 20260502052503 | 79 | 0 | 0.0 | 0.0 | 0.00 | 0.00 | 0.00 | 64 | 1015.9 |
| 20260502052003 | 79 | 0 | 0.0 | 0.0 | 0.00 | 0.00 | 0.00 | 64 | 1015.6 |
| 20260502051503 | 79 | 0 | 0.0 | 0.0 | 0.00 | 0.00 | 0.00 | 64 | 1015.7 |
| 20260502051003 | 79 | 0 | 0.0 | 0.0 | 0.00 | 0.00 | 0.00 | 64 | 1015.9 |
| 20260502050503 | 79 | 0 | 0.0 | 0.0 | 0.00 | 0.00 | 0.00 | 66 | 1015.5 |
| 20260502050003 | 80 | 0 | 0.0 | 0.0 | 0.00 | 0.00 | 0.00 | 64 | 1015.9 |
| 20260502045503 | 80 | 0 | 0.0 | 0.0 | 0.00 | 0.00 | 0.00 | 64 | 1015.7 |
| 20260502044518 | 79 | 0 | 0.0 | 0.0 | 0.00 | 0.00 | 0.00 | 65 | 1015.9 |
| 20260502044004 | 80 | 112 | 0.0 | 2.0 | 0.00 | 0.00 | 0.00 | 65 | 1016.1 |
| 20260502043504 | 79 | 98 | 0.0 | 2.0 | 0.00 | 0.00 | 0.00 | 64 | 1016.0 |
| 20260502043004 | 80 | 90 | 0.0 | 2.0 | 0.00 | 0.00 | 0.00 | 66 | 1016.1 |
| 20260502042503 | 80 | 0 | 0.0 | 0.0 | 0.00 | 0.00 | 0.00 | 66 | 1016.3 |
| 20260502042003 | 80 | 0 | 0.0 | 0.0 | 0.00 | 0.00 | 0.00 | 67 | 1016.1 |
| 20260502041503 | 80 | 0 | 0.0 | 0.0 | 0.00 | 0.00 | 0.00 | 66 | 1016.1 |
| 20260502041003 | 79 | 0 | 0.0 | 0.0 | 0.00 | 0.00 | 0.00 | 65 | 1016.0 |
| 20260502040506 | 80 | 0 | 0.0 | 0.0 | 0.00 | 0.00 | 0.00 | 67 | 1016.4 |
| 20260502040024 | 79 | 0 | 0.0 | 0.0 | 0.00 | 0.00 | 0.00 | 67 | 1016.3 |
| 20260502035503 | 79 | 89 | 0.0 | 2.0 | 0.00 | 0.00 | 0.00 | 66 | 1016.2 |
| 20260502035024 | 79 | 94 | 0.0 | 2.0 | 0.00 | 0.00 | 0.00 | 66 | 1016.3 |
| 20260502034503 | 79 | 112 | 0.0 | 2.0 | 0.00 | 0.00 | 0.00 | 63 | 1016.2 |
| 20260502034003 | 80 | 112 | 0.0 | 2.0 | 0.00 | 0.00 | 0.00 | 66 | 1016.3 |
| 20260502033524 | 80 | 0 | 0.0 | 0.0 | 0.00 | 0.00 | 0.00 | 65 | 1016.4 |
| 20260502033004 | 80 | 90 | 0.0 | 2.0 | 0.00 | 0.00 | 0.00 | 65 | 1016.6 |
| 20260502032503 | 79 | 76 | 0.0 | 2.0 | 0.00 | 0.00 | 0.00 | 67 | 1016.5 |
| 20260502032003 | 80 | 45 | 0.0 | 2.0 | 0.00 | 0.00 | 0.00 | 67 | 1016.6 |
| 20260502031524 | 80 | 45 | 0.0 | 2.0 | 0.00 | 0.00 | 0.00 | 66 | 1016.8 |
| 20260502031003 | 80 | 0 | 0.0 | 0.0 | 0.00 | 0.00 | 0.00 | 69 | 1016.7 |
| 20260502030524 | 80 | 0 | 0.0 | 0.0 | 0.00 | 0.00 | 0.00 | 67 | 1016.9 |
| 20260502030003 | 80 | 90 | 0.0 | 2.0 | 0.00 | 0.00 | 0.00 | 69 | 1016.8 |
| 20260502025503 | 79 | 90 | 0.0 | 2.0 | 0.00 | 0.00 | 0.00 | 67 | 1016.9 |
| 20260502025003 | 80 | 0 | 0.0 | 0.0 | 0.00 | 0.00 | 0.00 | 67 | 1017.1 |
| 20260502024503 | 79 | 0 | 0.0 | 0.0 | 0.00 | 0.00 | 0.00 | 69 | 1017.1 |
| 20260502024003 | 80 | 0 | 0.0 | 0.0 | 0.00 | 0.00 | 0.00 | 66 | 1016.9 |
| 20260502023504 | 80 | 0 | 0.0 | 0.0 | 0.00 | 0.00 | 0.00 | 69 | 1017.2 |
| 20260502023003 | 81 | 0 | 0.0 | 0.0 | 0.00 | 0.00 | 0.00 | 68 | 1017.3 |
| 20260502022503 | 80 | 0 | 0.0 | 0.0 | 0.00 | 0.00 | 0.00 | 70 | 1017.4 |
| 20260502022003 | 80 | 0 | 0.0 | 0.0 | 0.00 | 0.00 | 0.00 | 72 | 1017.4 |
| 20260502021503 | 80 | 0 | 0.0 | 0.0 | 0.00 | 0.00 | 0.00 | 73 | 1017.6 |
| 20260502021001 | 78 | 0 | 0.0 | 0.0 | 0.00 | 0.00 | 0.00 | 72 | 1017.7 |
| 20260502020501 | 78 | 0 | 0.0 | 0.0 | 0.00 | 0.00 | 0.00 | 72 | 1017.8 |
| 20260502020001 | 78 | 0 | 0.0 | 0.0 | 0.00 | 0.00 | 0.00 | 75 | 1017.8 |
| 20260502015522 | 77 | 0 | 0.0 | 0.0 | 0.00 | 0.00 | 0.00 | 74 | 1017.9 |
| 20260502015001 | 78 | 0 | 0.0 | 0.0 | 0.00 | 0.00 | 0.00 | 73 | 1017.8 |
| 20260502014522 | 79 | 0 | 0.0 | 0.0 | 0.00 | 0.00 | 0.00 | 72 | 1018.1 |
| 20260502014023 | 79 | 0 | 0.0 | 0.0 | 0.00 | 0.00 | 0.00 | 71 | 1018.2 |
| 20260502013502 | 79 | 0 | 0.0 | 0.0 | 0.00 | 0.00 | 0.00 | 72 | 1018.4 |
| 20260502013002 | 80 | 157 | 0.0 | 2.0 | 0.00 | 0.00 | 0.00 | 72 | 1018.4 |
| 20260502012501 | 78 | 157 | 0.0 | 2.0 | 0.00 | 0.00 | 0.00 | 75 | 1018.6 |
| 20260502012001 | 79 | 0 | 0.0 | 0.0 | 0.00 | 0.00 | 0.00 | 73 | 1018.5 |
| 20260502011501 | 79 | 0 | 0.0 | 0.0 | 0.00 | 0.00 | 0.00 | 73 | 1018.6 |
| 20260502011001 | 78 | 0 | 0.0 | 0.0 | 0.00 | 0.00 | 0.00 | 76 | 1018.6 |
| 20260502010501 | 76 | 0 | 0.0 | 0.0 | 0.00 | 0.00 | 0.00 | 77 | 1018.7 |
| 20260502010001 | 77 | 0 | 0.0 | 0.0 | 0.00 | 0.00 | 0.00 | 77 | 1018.8 |